Del Bajio, Mexico

3:50 AM CST on January 16, 2018 (GMT -0600)
De Guanajuato International

Weather History for MMLO - June, 2013

Change the Weather History Date:

Thursday, June 13, 2013

  Actual Average Record
Temperature  
Mean Temperature 72 °F -  
Max Temperature 84 °F 85 °F 98 °F (2005)
Min Temperature 60 °F 59 °F 55 °F (2006)
Cooling Degree Days 7    
Growing Degree Days 22 (Base 50)    
Moisture  
Dew Point 58 °F    
Average Humidity 70    
Maximum Humidity 94    
Minimum Humidity 37    
Precipitation  
Precipitation 0.00 in - - ()
Sea Level Pressure  
Sea Level Pressure 30.14 in    
Wind  
Wind Speed 4 mph ()    
Max Wind Speed 9 mph    
Max Gust Speed -    
Visibility 8.0 miles    
Events Rain    
Averages and records for this station are not official NWS values.
T = Trace of Precipitation, MM = Missing Value Source: Averaged Metar Reports

Daily Weather History Graph

Daily Weather History Graph

Search for Another Location

Airport or City:

Trip Planner

Search our weather history database for the weather conditions in past years. The results will help you decide how hot, cold, wet, or windy it might be!

Date:

Astronomy

Jun. 13, 2013 Rise Set
Actual Time 7:04 AM CDT 8:28 PM CDT
Civil Twilight 6:39 AM CDT 8:52 PM CDT
Nautical Twilight 6:09 AM CDT 9:22 PM CDT
Astronomical Twilight 5:39 AM CDT 9:52 PM CDT
Moon 11:15 AM CDT (6/13) No Moon Set
Length of Visible Light 14h 13m
Length of Day
13h 23m
Waxing Crescent, 22% of the Moon is Illuminated
Jun 13
Waxing Crescent
Jun 16
First Quarter
Jun 23
Full
Jun 29
Last Quarter
Jul 8
New

Hourly Weather History & Observations

Time (CDT) Temp. Heat Index Dew Point Humidity Pressure Visibility Wind Dir Wind Speed Gust Speed Precip Events Conditions
12:50 AM 62.6 °F - 60.8 °F 94% 29.92 in 6.0 mi East 9.2 mph - N/A Rain Light Rain
1:50 AM 62.6 °F - 59.0 °F 88% 30.32 in 8.0 mi SSE 6.9 mph - N/A   Overcast
3:50 AM 62.6 °F - 59.0 °F 88% 29.86 in 7.0 mi Calm Calm - N/A   Overcast
4:46 AM 60.8 °F - 59.0 °F 94% 30.28 in 7.0 mi Calm Calm - N/A   Overcast
5:46 AM 60.8 °F - 59.0 °F 94% 30.25 in 6.0 mi Calm Calm - N/A   Overcast
6:50 AM 62.6 °F - 59.0 °F 88% 29.88 in 7.0 mi Calm Calm - N/A   Overcast
7:50 AM 62.6 °F - 59.0 °F 88% 30.28 in 8.0 mi Calm Calm - N/A   Overcast
8:48 AM 64.4 °F - 60.8 °F 88% 30.32 in 8.0 mi Calm Calm - N/A   Overcast
9:40 AM 66.2 °F - 60.8 °F 83% 29.99 in 8.0 mi Calm Calm - N/A   Overcast
10:44 AM 75.2 °F - 57.2 °F 53% 30.32 in 9.0 mi Calm Calm - N/A   Mostly Cloudy
11:50 AM 78.8 °F - 55.4 °F 44% 30.32 in 9.0 mi WSW 5.8 mph - N/A   Mostly Cloudy
12:44 PM 66.2 °F - 55.4 °F 68% 29.86 in 7.0 mi West 5.8 mph - N/A   Mostly Cloudy
1:40 PM 84.2 °F 83.0 °F 55.4 °F 37% 30.29 in 7.0 mi ESE 6.9 mph - N/A   Mostly Cloudy
2:43 PM 82.4 °F 81.7 °F 55.4 °F 39% 30.27 in 10.0 mi ESE 8.1 mph - N/A   Mostly Cloudy
5:47 PM 75.2 °F - 60.8 °F 61% 30.18 in 10.0 mi NNW 6.9 mph - N/A   Overcast
6:43 PM 77.0 °F - 55.4 °F 47% 29.75 in 10.0 mi NW 3.5 mph - N/A   Overcast
7:48 PM 75.2 °F - 57.2 °F 53% 30.18 in 10.0 mi WSW 5.8 mph - N/A   Overcast
8:42 PM 73.4 °F - 53.6 °F 50% 30.21 in 8.0 mi SE 9.2 mph - N/A   Overcast
9:50 PM 69.8 °F - 57.2 °F 64% 29.88 in 8.0 mi SSE 9.2 mph - N/A   Overcast
10:51 PM 68.0 °F - 57.2 °F 68% 30.24 in 8.0 mi SSE 6.9 mph - N/A   Overcast
11:44 PM 66.2 °F - 57.2 °F 73% 30.27 in 8.0 mi SE 8.1 mph - N/A   Overcast